Tracking 20083 objects as of 7-Dec-2019
HD Live streaming from Space Station
objects crossing your sky now

SL-14 DEB

Track SL-14 DEB now!
10-day predictions


NORAD ID: 39986
Int'l Code: 1987-068DN
Perigee: 924.6 km
Apogee: 981.9 km
Inclination: 82.5 °
Period: 104.0 minutes
Semi major axis: 7324 km
RCS: 0.0017 m2 (small)
Launch date: August 18, 1987
Source: Commonwealth of Independent States (former USSR) (CIS)
Launch site: PLESETSK MISSILE AND SPACE COMPLEX (PKMTR)

Note: This is SATELLITE DEBRIS
aabbcc
Your satellite tracking list
Your tracking list is empty




NASA's NSSDC Master Catalog

Two Line Element Set (TLE):
1 39986U 87068DN  19277.20575296 +.00000261 +00000-0 +21703-3 0  9991
2 39986 082.4995 072.5483 0039138 344.3291 134.3043 13.85021868583560
Source of the keplerian elements: AFSPC